Regional Weather Roundup
Issued by NWS Wakefield, VA

Home | Current Version | Previous Version | Text Only | Print | Product List | Glossary Off
Versions: 1 2 3 4 5 6 7 8 9 10 11 12 13 14 15 16 17 18 19 20 21 22 23 24 25 26 27

000
ASUS41 KAKQ 221210
RWRAKQ

REGIONAL WEATHER ROUNDUP
NATIONAL WEATHER SERVICE WAKEFIELD VA
800 AM EDT TUE APR 22 2014

Note: "fair" indicates few or no clouds below 12,000 feet with no
significant weather and/or obstructions to visibility. * = Denotes
station may not report precipitation (e.g., rain,snow,etc.),
thunder or fog.

VAZ042-051-052>054-056-221300-
NORTHERN VIRGINIA

CITY           SKY/WX    TMP DP  RH WIND       PRES   REMARKS
WASH NATIONAL  PTSUNNY   56  47  71 S8        29.76F
DULLES         PTSUNNY   52  44  74 S7        29.74F
FORT BELVOIR   SUNNY     53  48  82 SE2       29.76F
QUANTICO       MOSUNNY   54  46  74 SW8       29.77F
FREDERICKSBRG* SUNNY     54  46  76 S3        29.76S
STAFFORD*      SUNNY     53  51  95 CALM      29.80S
WARRENTON      SUNNY     53  49  86 CALM      29.74F
CULPEPER*      MOSUNNY   54  43  66 CALM      29.75F
MANASSAS*      SUNNY     52  48  87 SE3       29.75F
LEESBURG*      MOSUNNY   54  46  76 CALM      29.75F
WINCHESTER     PTSUNNY   61  36  39 SW8       29.73F
$$

VAZ048-049-060>072-079>083-221300-
CENTRAL AND SOUTH CENTRAL VIRGINIA...AND NORTH CENTRAL NORTH CAROLINA

CITY           SKY/WX    TMP DP  RH WIND       PRES   REMARKS
RICHMOND       PTSUNNY   54  47  77 S8        29.79S
CHESTERFIELD*  NOT AVBL
HANOVER        SUNNY     53  47  79 S7        29.79S
TAPPAHANNOCK*  SUNNY     53  47  81 S6        29.78S
CHARLOTTSVILLE SUNNY     54  37  52 SW3       29.75F
ORANGE*        SUNNY     52  39  62 SE3       29.76F
LOUISA*        SUNNY     54  43  66 S3        29.75F
FARMVILLE*     MOSUNNY   52  45  76 CALM      29.76F
SOUTH HILL*    MOSUNNY   54  46  76 S6        29.85S
ROANOKE RAPIDS MOSUNNY   52  48  87 S3        29.82S
RALEIGH        PTSUNNY   55  43  63 SW5       29.82S
$$

VAZ088>098-221300-
SOUTHEAST VIRGINIA

CITY           SKY/WX    TMP DP  RH WIND       PRES   REMARKS
NORFOLK        MOSUNNY   51  48  89 S7        29.81S
VIRGINIA BEACH PTSUNNY   51  48  89 SW7       29.81F
NORFOLK NAVAL  PTSUNNY   54  47  77 S7        29.82S
WEST POINT*    MOSUNNY   54  48  80 S7        29.81S
NEWPORT NEWS   MOSUNNY   57  49  74 SW7       29.81S
LANGLEY AFB    MOSUNNY   53  53  99 SW7       29.81S
FORT EUSTIS    MOSUNNY   54  50  86 S7        29.79F
WILLIAMSBURG*  MOSUNNY   54  48  82 S7        29.81F
FRANKLIN*      MOSUNNY   54  54 100 S5        29.82F
WAKEFIELD      MOSUNNY   53  47  79 S7        29.81F
$$

VAZ020-022-025-037-045-221300-
WESTERN AND SOUTHWEST VIRGINIA

CITY           SKY/WX    TMP DP  RH WIND       PRES   REMARKS
STAUNTON*      SUNNY     51  43  74 CALM      29.80S
HOT SPRINGS VA CLOUDY    55  43  62 W10       29.90S
LYNCHBURG      SUNNY     56  42  59 CALM      29.80S
DANVILLE       MOSUNNY   54  42  64 SW7       29.80S
MARTINSVILLE   MOSUNNY   52  46  80 CALM      29.84S
ROANOKE        PTSUNNY   61  43  51 W10       29.83R
BLACKSBURG     CLOUDY    55  50  82 CALM      29.87S
DUBLIN*        CLOUDY    56  47  70 SW6       29.86F
MARION*        CLOUDY    54  44  70 W8        29.90S
HILLSVILLE*    PTSUNNY   57  39  51 W5        29.90S
RICHLANDS*     LGT RAIN  62  47  57 SW8       29.87F
WISE*          CLOUDY    59  45  58 SW6       29.90R
ABINGDON*      CLOUDY    56  49  75 CALM      29.88F
$$

MDZ021>025-VAZ099-100-221300-
SOUTHERN MARYLAND AND THE DELMARVA PENINSULA

CITY           SKY/WX    TMP DP  RH WIND       PRES   REMARKS
PATUXENT RIVER MOSUNNY   53  48  83 VRB5      29.77F
BAY BRIDGE APT SUNNY     54  48  82 S8        29.76F
LEONARDTOWN    MOSUNNY   50  46  87 S6        29.78F
DOVER          MOSUNNY   51  51 100 S8        29.73F
GEORGETOWN     MOSUNNY   51  47  86 SW8       29.79S
EASTON         MOSUNNY   55  55 100 S6        29.80F
CAMBRIDGE      MOSUNNY   54  50  87 S5        29.77F
SALISBURY      MOSUNNY   52  47  83 S3        29.79F
OCEAN CITY     MOSUNNY   51  47  86 S6        29.79F
WALLOPS ISLAND CLOUDY    54  50  86 SW9       29.81S
ACCOMACK*      MOSUNNY   52  46  82 S6        29.80F
$$

NCZ012>017-030>032-221300-
EASTERN NORTH CAROLINA

CITY           SKY/WX    TMP DP  RH WIND       PRES   REMARKS
ELIZABETH CITY MOSUNNY   52  50  93 SW7       29.84S
AHOSKIE*       SUNNY     51  49  93 S7        29.83F
EDENTON*       MOSUNNY   53  52  95 S6        29.84F
CURRITUCK*     MOSUNNY   50  49  93 CALM      29.84S
KILL DEVIL HLS MOSUNNY   51  51  98 SW5       29.83S
MANTEO         MOSUNNY   51  51  98 SW3       29.85S
CAPE HATTERAS  MOSUNNY   50  32  50 SW3       29.86S FOG
GOLDSBORO      PTSUNNY   55  54  95 SE1       29.82F
WASHINGTON     SUNNY     53  48  85 S3        29.85S
GREENVILLE     MOSUNNY   55  52  88 SW5       29.87S
NEW BERN       SUNNY     55  51  86 CALM      29.87S
WILMINGTON     SUNNY     59  55  87 SW5       29.87S
$$

VAZ048-221300-
ELSEWHERE

CITY           SKY/WX    TMP DP  RH WIND       PRES   REMARKS
HARRISBURG PA  CLOUDY    54  40  59 E6        29.72F
BALTIMORE      PTSUNNY   51  47  86 S3        29.74F
ANNAPOLIS      SUNNY     54  48  80 S7        29.75F
ANDREWS AFB    SUNNY     54  47  78 S10       29.75F
WILMINGTON DE  PTSUNNY   52  48  86 S8        29.77F
PHILADELPHIA   PTSUNNY   51  44  77 S7        29.77F
WILDWOOD NJ*   MOSUNNY   54  46  76 S6        29.79F
ATLANTIC CITY  MOSUNNY   49  46  90 CALM      29.78S
HENDERSON NC   MOSUNNY   54  41  62 SW8       29.80F
GREENSBORO     PTSUNNY   59  44  57 W5        29.81F
ROCKY MOUNT    MOSUNNY   54  49  83 S6        29.83S
FAYETTEVILLE   MOSUNNY   54  48  80 SW6       29.85R
CHARLOTTE      MOSUNNY   57  48  72 CALM      29.85S
$$

VAZ100-221300-
MARINE

STATION/POSITION TIME  TEMP    WIND        PRES    WAVE   SWELL
                       AIR SEA DIR/SP/G            HT/PER HT/PER
                 (UTC) (F)     (DEG/KT/KT) (MB)    (FT/S) (FT/S)
44066 TX TWR #4  1200   47 45  220/  4/  4 1008.7F   5/ 8   5/ 8
CAPE MAY NJ      1200   51 54  170/  7/  9 1008.1F
LEWES DE         1200   52 49  200/  5/  7 1007.9R
15NM E FENWICK I 1200   48 47              1008.9F   5/ 9
OCEAN-CITY-INLET 1200   49 48  210/  5/  6 1008.6S
WACHAPREAGUE VA  1200   54 55  210/  6/  8 1009.0F
THOMAS POINT MD  1200   53 54  180/ 14/ 15 1008.1F
GOOSES REEF MD   1200   53     200/ 10/ 12   N/A
COVE POINT MD    1200   52     190/ 11/ 12 1007.9F
SOLOMONS ISLAND  1200      54                N/A
BISHOPS HEAD MD  1200   54 55  180/ 11/ 12 1008.2F
PINEY POINT MD   1200          180/  8/  9   N/A
POTOMAC MD       1200   53     210/  6/  6 1008.0R
CAMBRIDGE MD     1200   53 57  170/  6/  8 1007.6F
LEWISETTA VA     1200   53 56  190/  6/  7 1007.8F
RAPPAHANNOCK LGT 1200          160/ 10/ 11 1009.2F
STINGRAY PT      1200   53     210/  8/ 10 1009.0S
YORK RVR RNG VA  1200   53     210/  7/  8 1008.3F
YORKTOWN VA      1200   53 55  200/  5/  7 1008.7S
JAMESTOWN VA     1200   52     170/  4/  6   N/A
DOMINION TERM VA 1200   52     210/  6/  8 1009.4S
KIPTOPEKE VA     1200      54  170/  5/  6   N/A
CHES BAY BRIDGE  1200   51 52  180/  8/  9 1009.3R
CAPE HENRY VA    1200   53     190/  8/ 10   N/A
CHESAPEAKE LGHT  1100   49     210/  9/  9 1010.7R
WILLOUBY STN VA  1200   53     220/  6/  7 1008.5S
S CRANEY ISL VA  1200          170/  6/  8 1009.6R
CAPE HENRY BUOY  1200      46                N/A     4/10   2/11
1ST LANDING BUOY 1200      47                N/A     4/10   3/10
64NM E OF VA BCH 1200   46 48  290/  4/  6 1010.0R   6/10   5/10
DUCK PIER NC     1200   50 50  190/  3/  3 1009.3S
44100 DUCK FRF   1200      48                N/A     5/ 9   2/11
44056 DUCK FRF   1200      49                N/A     4/ 8   2/11
OREGON INLET NC  1200   51 52  190/  4/  5 1010.4F
HATTERAS NC      1200   53 54  200/  1/  2 1011.2S
DIAMOND SHLS NC  1200   60 76  300/  6/  8 1011.0F   6/10   7/10
CAPE LOOKOUT NC  1100   57     270/  5/  5 1011.5R
FRYING PAN SHLS  1200   65 67  260/  8/ 10 1011.8S   4/ 9   3/ 9
$$



USA.gov is the U.S. government's official web portal to all federal, state and local government web resources and services.